Regional Weather Roundup
Issued by NWS

Home | Current Version | Previous Version | Graphics & Text | Print | Product List | Glossary On
Versions: 1 2 3 4 5 6 7 8 9 10 11 12 13 14 15 16 17 18 19 20 21 22 23 24 25 26 27 28 29 30 31 32 33 34 35 36 37 38 39 40 41 42 43 44 45 46 47 48 49 50
740
ASUS43 KDTX 102010
RWRMI
MICHIGAN HOURLY REGIONAL WEATHER ROUNDUP
NATIONAL WEATHER SERVICE DETROIT/PONTIAC MI
300 PM EST WED FEB 10 2016

NOTE: "FAIR" INDICATES FEW OR NO CLOUDS BELOW 12,000 FEET WITH NO
SIGNIFICANT WEATHER AND/OR OBSTRUCTION TO VISIBILITY.

MIZ047>049-052>055-059>063-066>070-074>076-081>083-102100-
SOUTHEAST LOWER MICHIGAN

CITY           SKY/WX    TMP DP  RH WIND       PRES   REMARKS
ADRIAN         LGT SNOW  19  13  77 NW13G23   29.86R VSB 3/4 WCI   6
ALMA           LGT SNOW  19   9  65 NW9G17    29.85R WCI   8
ANN ARBOR      CLOUDY    20   6  55 W13G23    29.83R WCI   7
BAD AXE        CLOUDY    16   7  67 NW10G17   29.80S WCI   4
CARO           CLOUDY    16   9  73 W10G16    29.82R WCI   3
DETROIT CITY   CLOUDY    20   8  60 NW12      29.83S WCI   8
DETROIT        LGT SNOW  20  10  65 NW14G24   29.84S WCI   7
FLINT          LGT SNOW  19  10  68 NW13      29.83R WCI   6
GROSSE ILE     CLOUDY    23   9  54 W13       29.83R WCI  11
HILLSDALE      CLOUDY    20   7  57 W15G24    29.83S WCI   6
HOWELL         CLOUDY    20   5  52 NW18      29.82R WCI   4

CITY           SKY/WX    TMP DP  RH WIND       PRES   REMARKS
JACKSON        CLOUDY    20   4  50 NW20G25   29.83S WCI   4
LAMBERTVILLE   CLOUDY    22  12  64 W6        29.86S WCI  15
LANSING        PTSUNNY   18   1  47 W16G24    29.85S WCI   3
LAPEER         CLOUDY    17   8  68 NW10G17   29.81R WCI   4
MASON          CLOUDY    19   5  55 W13G24    29.84R WCI   6
MONROE         CLOUDY    24  10  55 NW12      29.84R WCI  13
MT. CLEMENS    FLURRIES  19   8  62 NW12      29.80S WCI   7
PONTIAC        LGT SNOW  17  11  77 NW12      29.80R WCI   4
PORT HOPE        N/A     15   8  73 NW22G29   29.79R WCI  -3
PORT HURON     CLOUDY    18   7  62 NW14      29.82R WCI   4
TRI CITIES     CLOUDY    20   5  52 NW21      29.83S WCI   4
MIDLAND        CLOUDY    18   3  53 N13G21    29.83R WCI   5
TROY           CLOUDY    21  10  62 NW15      29.84R WCI   8
SAGINAW HB     CLOUDY    19  10  68 NW17      29.83R WCI   4
$$
MIZ043>046-050>051-056>058-064>065-071>073-077>080-102100-
SOUTHWEST LOWER MICHIGAN

CITY           SKY/WX    TMP DP  RH WIND       PRES   REMARKS
BATTLE CREEK   PTSUNNY   20   7  57 W16G24    29.87R WCI   6
BENTON HARBOR  LGT SNOW  19  11  70 NW15G21   29.96R VSB 1   WCI   5
BIG RAPIDS     LGT SNOW  17   6  61 NW12G22   29.85R WCI   4
COLDWATER      LGT SNOW  20  11  68 NW10      29.86S WCI   8
FREMONT        CLOUDY    17   4  54 NW16G24   29.90R WCI   2
HOLLAND        LGT SNOW  19  11  70 NW14G23   29.93R WCI   6
GRAND RAPIDS   PTSUNNY   19   4  51 NW17      29.88S WCI   4
IONIA          CLOUDY    19   2  49 NW12G21   29.85R WCI   6
KALAMAZOO      LGT SNOW  19  10  68 NW16      29.89R WCI   4
LUDINGTON      CLOUDY    15   5  62 N12G20    29.94R HAZE    WCI   2
MARSHALL       PTSUNNY   24   9  53 NW10G22   29.85S WCI  14
MOUNT PLEASANT LGT SNOW  19   6  57 NW10G18   29.84R WCI   7
MUSKEGON       CLOUDY    18   6  59 NW21G28   29.94R WCI   1
SOUTH HAVEN    CLOUDY    19   8  61 NW16G22   29.94R WCI   5
$$
MIZ016>042-102100-
NORTHERN LOWER MICHIGAN

CITY           SKY/WX    TMP DP  RH WIND       PRES   REMARKS
ALPENA         CLOUDY    12   0  58 NW16G28   29.81R BLWGSNOWWCI  -5
BEAVER ISLAND  PTSUNNY   14   1  56 N9G20     29.90R WCI   1
BELLAIRE       CLOUDY    15   4  62 NW9G17    29.89S HAZE    WCI   3
CADILLAC       LGT SNOW  13   6  71 NW13G22   29.81R WCI  -1
CHARLEVOIX     CLOUDY    14   2  58 NW15G24   29.90S WCI  -1
FRANKFORT      LGT SNOW  16   5  62 NW8G17    29.92R WCI   5
GAYLORD        LGT SNOW  10  -1  61 NW10G23   29.79R WCI  -4
GRAYLING       PTSUNNY   12   0  59 NW17G28   29.82R WCI  -5
HARBOR SPRINGS CLOUDY    12   0  57 N10G21    29.86S WCI  -1
HOUGHTON LAKE  CLOUDY    13   1  59 N17G24    29.81R WCI  -4
OSCODA         CLOUDY    15   3  59 NW17      29.80S WCI  -1
PELLSTON       CLOUDY    11   0  61 N12G25    29.87R WCI  -3
ROGERS CITY    CLOUDY    11   4  71 NW17G23   29.83R HAZE    WCI  -6
TRAVERSE CITY  FLURRIES  16   3  56 N12G22    29.88S WCI   3
$$
MIZ007>008-015-102100-
EASTERN UPPER MICHIGAN

CITY           SKY/WX    TMP DP  RH WIND       PRES   REMARKS
KINROSS        CLOUDY     9   1  72 NW16G23   29.84S WCI  -9
MACKINAC ISLAN CLOUDY    11   1  63 NW14G24   29.85S WCI  -5
NEWBERRY       LGT SNOW   8   4  81 N13G18    29.88R VSB 1   WCI  -8
S. S. MARIE    MOSUNNY    9  -7  48 N12       29.85S WCI  -6
MUNISING         N/A     12   5  73 N21       29.95R WCI  -7
$$
MIZ004>006-011>014-085-102100-
CENTRAL UPPER MICHIGAN

CITY           SKY/WX    TMP DP  RH WIND       PRES   REMARKS
MANISTIQUE     LGT SNOW  11   5  76 N13G21    29.92R WCI  -4
ESCANABA       PTSUNNY   16   0  48 NW17G26   29.95S WCI   0
MENOMINEE      MOSUNNY   14  -6  41 N14       29.99R WCI  -1
SAWYER-GWINN   LGT SNOW   7   3  85 N16       29.92R VSB 1   WCI -11
$$
MIZ001>003-009>011-084-102100-
WESTERN UPPER MICHIGAN

CITY           SKY/WX    TMP DP  RH WIND       PRES   REMARKS
IRON MOUNTAIN  CLOUDY    10  -4  53 NW18G25   29.96S WCI  -8
HOUGHTON       SNOW       7   0  73 N13       30.00S VSB 1/2 WCI  -9
COPPER HARBOR    N/A     11   5  77 NE20G28   30.02S WCI  -7
IRONWOOD       CLOUDY     9   1  72 N10       30.01S VSB 3/4 WCI  -6
$$

ABBREVIATIONS USED IN REMARKS
   TC - TEMPERATURE IN CELSIUS
  WCI - WIND CHILL INDEX
   HX - HEAT INDEX
  VSB - VISIBILITY





USA.gov is the U.S. government's official web portal to all federal, state and local government web resources and services.